Location: Newark
(42.8481°N, 0.4872°E)
Time: 20:42:37
(UTC+00:00)

Transit 2A - Pass Details

Date: 02 November 2020
Orbit: 595 x 963 km, 66.7° (Epoch: 03 December)

Event Time Altitude Azimuth Distance (km) Brightness Sun altitude
Rises 09:11:48 0° 324° (NW) 3,396 8.8 22.8°
Reaches altitude 10° 09:14:27 10° 319° (NW) 2,397 8.1 23.1°
Maximum altitude 09:19:40 47° 247° (WSW) 992 6.8 23.7°
Drops below altitude 10° 09:24:20 10° 174° (S) 2,148 9.5 24.2°
Sets 09:26:37 0° 168° (SSE) 3,008 10.1 24.4°
